This is the latest recevied weather packets stored in our database for station/object N1ICS-1. If no packets are shown the sender has not sent any weather packets the latest 10 day(s).
| Time | Temp. | Humidity | Pressure | Rain* | Wind** | Luminosity | Snow |
|---|---|---|---|---|---|---|---|
| 1788545402 | 26.11° C | 85% | 1019.1 hPa | 0 mm | - | 727 W/m² | - |
| 1788544201 | 26.11° C | 85% | 1018.9 hPa | 0 mm | - | 756 W/m² | - |
| 1788543902 | 26.67° C | 87% | 1019 hPa | 0 mm | - | 851 W/m² | - |
| 1788543602 | 26.11° C | 86% | 1018.9 hPa | 0 mm | - | 903 W/m² | - |
| 1788543302 | 26.11° C | 87% | 1018.9 hPa | 0 mm | - | 852 W/m² | - |
| 1788543002 | 26.11° C | 88% | 1018.9 hPa | 0 mm | - | 872 W/m² | - |
| 1788542702 | 25.56° C | 89% | 1019.1 hPa | 0 mm | - | 810 W/m² | - |
| 1788542402 | 25° C | 91% | 1019.5 hPa | 0 mm | - | 306 W/m² | - |
| 1788542102 | 25.56° C | 92% | 1019.6 hPa | 0 mm | - | 168 W/m² | - |
| 1788541502 | 26.11° C | 91% | 1019.3 hPa | 0 mm | - | 515 W/m² | - |
| 1788541202 | 25° C | 93% | 1019.2 hPa | 0 mm | - | 222 W/m² | - |
| 1788540902 | 25.56° C | 94% | 1019.3 hPa | 0 mm | - | 846 W/m² | - |
| 1788540602 | 25.56° C | 92% | 1019.6 hPa | 0 mm | - | 117 W/m² | - |
| 1788540002 | 26.67° C | 91% | 1019.5 hPa | 0 mm | - | 118 W/m² | - |
| 1788539702 | 26.67° C | 90% | 1019.1 hPa | 0 mm | - | 712 W/m² | - |
| 1788539402 | 26.67° C | 91% | 1019.2 hPa | 0 mm | - | 625 W/m² | - |
| 1788539102 | 26.67° C | 92% | 1019.1 hPa | 0 mm | - | 345 W/m² | - |
| 1788538802 | 27.22° C | 92% | 1019.3 hPa | 0 mm | - | 569 W/m² | - |
| 1788538502 | 27.22° C | 91% | 1019.2 hPa | 0 mm | - | 383 W/m² | - |
| 1788538202 | 27.22° C | 88% | 1018.8 hPa | 0 mm | - | 392 W/m² | - |
| 1788537902 | 27.78° C | 89% | 1018.8 hPa | 0 mm | - | 199 W/m² | - |
| 1788537301 | 28.89° C | 83% | 1018.5 hPa | 0 mm | - | 351 W/m² | - |
| 1788536701 | 30° C | 80% | 1018.5 hPa | 0 mm | - | 654 W/m² | - |
| 1788536402 | 29.44° C | 81% | 1018.3 hPa | 0 mm | - | 708 W/m² | - |
| 1788536102 | 29.44° C | 81% | 1018.4 hPa | 0 mm | - | 731 W/m² | - |
* Rain latest hour (hover to see other rain measurements)
** Current wind speed in m/s (hover to see current wind gust speed)